Tracking 30918 objects as of 2-Jul-2025
HD Live streaming from Space Station
objects crossing your sky now

STARLINK-30274

Track STARLINK-30274 now!
10-day predictions
STARLINK-30274 is classified as:


NORAD ID: 57672
Int'l Code: 2023-124K
Perigee: 481.5 km
Apogee: 483.3 km
Inclination: 53.2 °
Period: 94.1 minutes
Semi major axis: 6853 km
RCS: Unknown
Launch date: August 22, 2023
Source: United States (US)
Launch site: AIR FORCE WESTERN TEST RANGE (AFWTR)
Your satellite tracking list
STARLINK-3857
Track 1 satellite(s)




NASA's NSSDC Master Catalog

Two Line Element Set (TLE):
1 57672U 23124K   25182.60065954 -.00001549  00000-0 -40215-4 0  9999
2 57672  53.1604 293.2407 0001307  87.6609 272.4542 15.30176621104971
Source of the keplerian elements: AFSPC